| time (UTC) | temp F | wind direction | speed MPH | gust MPH | rain 1hr in | rain 24hr in | rain mn in | humidity % | barometer mb |
| 20260507113358 | 56 | 21 | 2.0 | 6.0 | 0.00 | 0.01 | 0.00 | 80 | 1013.3 |
| 20260507112826 | 56 | 33 | 1.0 | 6.0 | 0.00 | 0.01 | 0.00 | 80 | 1014.3 |
| 20260507112336 | 56 | 21 | 1.0 | 6.0 | 0.00 | 0.01 | 0.00 | 79 | 1014.3 |
| 20260507111825 | 57 | 9 | 1.0 | 4.0 | 0.00 | 0.01 | 0.00 | 79 | 1014.3 |
| 20260507111332 | 57 | 344 | 0.0 | 0.0 | 0.00 | 0.01 | 0.00 | 79 | 1014.3 |
| 20260507110839 | 57 | 344 | 0.0 | 0.0 | 0.00 | 0.01 | 0.00 | 80 | 1014.3 |
| 20260507110344 | 57 | 344 | 0.0 | 4.0 | 0.00 | 0.01 | 0.00 | 79 | 1014.3 |
| 20260507105848 | 57 | 344 | 1.0 | 5.0 | 0.00 | 0.01 | 0.00 | 78 | 1014.3 |
| 20260507105333 | 57 | 355 | 1.0 | 3.0 | 0.00 | 0.01 | 0.00 | 79 | 1014.3 |
| 20260507104840 | 57 | 25 | 0.0 | 6.0 | 0.00 | 0.01 | 0.00 | 78 | 1014.3 |
| 20260507104329 | 57 | 25 | 1.0 | 6.0 | 0.00 | 0.01 | 0.00 | 78 | 1014.5 |
| 20260507103835 | 57 | 19 | 2.0 | 3.0 | 0.00 | 0.01 | 0.00 | 77 | 1014.5 |
| 20260507103329 | 57 | 348 | 2.0 | 4.0 | 0.00 | 0.01 | 0.00 | 77 | 1014.5 |
| 20260507102834 | 57 | 330 | 1.0 | 4.0 | 0.00 | 0.01 | 0.00 | 76 | 1014.7 |
| 20260507102339 | 57 | 304 | 0.0 | 3.0 | 0.00 | 0.01 | 0.00 | 76 | 1014.7 |
| 20260507101825 | 57 | 301 | 0.0 | 6.0 | 0.00 | 0.01 | 0.00 | 76 | 1014.7 |
| 20260507101332 | 58 | 288 | 1.0 | 6.0 | 0.00 | 0.01 | 0.00 | 76 | 1014.7 |
| 20260507100839 | 58 | 288 | 2.0 | 5.0 | 0.00 | 0.01 | 0.00 | 75 | 1014.7 |
| 20260507100326 | 58 | 288 | 3.0 | 5.0 | 0.00 | 0.01 | 0.00 | 75 | 1014.7 |
| 20260507095830 | 58 | 288 | 3.0 | 5.0 | 0.00 | 0.01 | 0.00 | 75 | 1014.6 |
| 20260507095338 | 58 | 288 | 1.0 | 5.0 | 0.00 | 0.01 | 0.00 | 74 | 1014.6 |
| 20260507094827 | 58 | 288 | 1.0 | 5.0 | 0.00 | 0.01 | 0.00 | 74 | 1014.6 |
| 20260507094333 | 57 | 284 | 0.0 | 0.0 | 0.00 | 0.01 | 0.00 | 75 | 1014.7 |
| 20260507093843 | 57 | 284 | 0.0 | 0.0 | 0.00 | 0.01 | 0.00 | 76 | 1014.7 |
| 20260507093331 | 58 | 285 | 0.0 | 0.0 | 0.00 | 0.01 | 0.00 | 76 | 1014.7 |
| 20260507092835 | 58 | 284 | 0.0 | 0.0 | 0.00 | 0.01 | 0.00 | 76 | 1015.0 |
| 20260507092341 | 58 | 284 | 0.0 | 0.0 | 0.00 | 0.01 | 0.00 | 76 | 1015.0 |
| 20260507091826 | 57 | 284 | 0.0 | 0.0 | 0.00 | 0.01 | 0.00 | 77 | 1015.0 |
| 20260507091336 | 57 | 285 | 0.0 | 0.0 | 0.00 | 0.01 | 0.00 | 75 | 1015.0 |
| 20260507090826 | 58 | 285 | 0.0 | 0.0 | 0.00 | 0.01 | 0.00 | 74 | 1015.0 |
| 20260507090332 | 58 | 285 | 0.0 | 0.0 | 0.00 | 0.01 | 0.00 | 73 | 1015.0 |
| 20260507085837 | 58 | 285 | 0.0 | 0.0 | 0.00 | 0.01 | 0.00 | 74 | 1015.0 |
| 20260507085404 | 58 | 284 | 0.0 | 0.0 | 0.00 | 0.01 | 0.00 | 74 | 1015.0 |
| 20260507084830 | 59 | 285 | 0.0 | 1.0 | 0.00 | 0.01 | 0.00 | 73 | 1015.0 |
| 20260507084336 | 59 | 284 | 0.0 | 5.0 | 0.00 | 0.01 | 0.00 | 74 | 1015.1 |
| 20260507083826 | 59 | 285 | 1.0 | 5.0 | 0.00 | 0.01 | 0.00 | 74 | 1015.1 |
| 20260507083333 | 59 | 285 | 0.0 | 2.0 | 0.00 | 0.01 | 0.00 | 74 | 1015.1 |
| 20260507082838 | 59 | 285 | 0.0 | 4.0 | 0.00 | 0.01 | 0.00 | 74 | 1015.2 |
| 20260507082327 | 59 | 285 | 1.0 | 4.0 | 0.00 | 0.01 | 0.00 | 75 | 1015.2 |
| 20260507081833 | 59 | 172 | 0.0 | 0.0 | 0.00 | 0.01 | 0.00 | 76 | 1015.2 |
| 20260507081340 | 59 | 173 | 0.0 | 0.0 | 0.00 | 0.01 | 0.00 | 76 | 1015.4 |
| 20260507080826 | 58 | 173 | 0.0 | 0.0 | 0.00 | 0.01 | 0.00 | 77 | 1015.4 |
| 20260507080332 | 58 | 173 | 0.0 | 0.0 | 0.00 | 0.01 | 0.00 | 76 | 1015.4 |
| 20260507075837 | 57 | 173 | 0.0 | 0.0 | 0.00 | 0.01 | 0.00 | 76 | 1015.4 |
| 20260507075327 | 57 | 173 | 0.0 | 0.0 | 0.00 | 0.01 | 0.00 | 75 | 1015.4 |
| 20260507074836 | 58 | 173 | 0.0 | 0.0 | 0.00 | 0.01 | 0.00 | 75 | 1015.4 |
| 20260507074343 | 58 | 173 | 0.0 | 0.0 | 0.00 | 0.01 | 0.00 | 74 | 1015.5 |
| 20260507073829 | 58 | 173 | 0.0 | 0.0 | 0.00 | 0.01 | 0.00 | 74 | 1015.5 |
| 20260507073336 | 58 | 173 | 0.0 | 0.0 | 0.00 | 0.01 | 0.00 | 74 | 1015.5 |
| 20260507072901 | 58 | 173 | 0.0 | 0.0 | 0.00 | 0.01 | 0.00 | 73 | 1015.6 |
| 20260507072325 | 58 | 173 | 0.0 | 0.0 | 0.00 | 0.01 | 0.00 | 72 | 1015.6 |
| 20260507071831 | 58 | 173 | 0.0 | 0.0 | 0.00 | 0.01 | 0.00 | 71 | 1015.6 |
| 20260507071336 | 58 | 173 | 0.0 | 0.0 | 0.00 | 0.01 | 0.00 | 72 | 1015.8 |
| 20260507070827 | 58 | 173 | 0.0 | 0.0 | 0.00 | 0.01 | 0.00 | 73 | 1015.8 |
| 20260507070336 | 58 | 173 | 0.0 | 0.0 | 0.00 | 0.01 | 0.00 | 72 | 1015.8 |
| 20260507065901 | 58 | 173 | 0.0 | 0.0 | 0.00 | 0.01 | 0.00 | 73 | 1015.7 |
| 20260507065330 | 58 | 173 | 0.0 | 0.0 | 0.00 | 0.01 | 0.00 | 73 | 1015.7 |
| 20260507064836 | 58 | 173 | 0.0 | 0.0 | 0.00 | 0.01 | 0.00 | 73 | 1015.7 |
| 20260507064322 | 58 | 172 | 0.0 | 0.0 | 0.00 | 0.01 | 0.00 | 73 | 1015.8 |
| 20260507063852 | 58 | 172 | 0.0 | 0.0 | 0.00 | 0.01 | 0.00 | 72 | 1015.8 |
| 20260507063338 | 58 | 173 | 0.0 | 0.0 | 0.00 | 0.01 | 0.00 | 72 | 1015.8 |
| 20260507062843 | 58 | 173 | 0.0 | 0.0 | 0.00 | 0.01 | 0.00 | 72 | 1015.7 |
| 20260507062350 | 59 | 173 | 0.0 | 0.0 | 0.00 | 0.01 | 0.00 | 73 | 1015.7 |
| 20260507061836 | 59 | 173 | 0.0 | 0.0 | 0.00 | 0.01 | 0.00 | 72 | 1015.7 |
| 20260507061343 | 59 | 173 | 0.0 | 0.0 | 0.00 | 0.01 | 0.00 | 72 | 1016.0 |
| 20260507060829 | 59 | 173 | 0.0 | 0.0 | 0.00 | 0.01 | 0.00 | 72 | 1016.0 |
| 20260507060355 | 59 | 173 | 0.0 | 0.0 | 0.00 | 0.01 | 0.00 | 71 | 1016.0 |
| 20260507055840 | 59 | 173 | 0.0 | 0.0 | 0.00 | 0.01 | 0.01 | 71 | 1015.1 |
| 20260507055331 | 59 | 173 | 0.0 | 0.0 | 0.00 | 0.01 | 0.01 | 70 | 1015.1 |
| 20260507054836 | 59 | 173 | 0.0 | 0.0 | 0.00 | 0.01 | 0.01 | 71 | 1015.1 |
| 20260507054341 | 59 | 173 | 0.0 | 0.0 | 0.00 | 0.01 | 0.01 | 72 | 1015.2 |
| 20260507053826 | 59 | 173 | 0.0 | 0.0 | 0.00 | 0.01 | 0.01 | 73 | 1015.2 |
| 20260507053332 | 59 | 173 | 0.0 | 0.0 | 0.00 | 0.01 | 0.01 | 73 | 1015.2 |
| 20260507052858 | 59 | 173 | 0.0 | 0.0 | 0.00 | 0.01 | 0.01 | 72 | 1015.2 |
| 20260507052344 | 59 | 173 | 0.0 | 0.0 | 0.00 | 0.01 | 0.01 | 71 | 1015.2 |
| 20260507051829 | 59 | 173 | 0.0 | 0.0 | 0.00 | 0.01 | 0.01 | 69 | 1015.2 |
| 20260507051356 | 59 | 173 | 0.0 | 0.0 | 0.00 | 0.01 | 0.01 | 68 | 1015.6 |
| 20260507050842 | 58 | 173 | 0.0 | 0.0 | 0.00 | 0.01 | 0.01 | 69 | 1015.6 |
| 20260507050329 | 58 | 173 | 0.0 | 0.0 | 0.00 | 0.01 | 0.01 | 70 | 1015.6 |
| 20260507045854 | 58 | 173 | 0.0 | 0.0 | 0.00 | 0.01 | 0.01 | 71 | 1015.7 |
| 20260507045341 | 57 | 173 | 0.0 | 0.0 | 0.00 | 0.01 | 0.01 | 71 | 1015.7 |
| 20260507044845 | 57 | 173 | 0.0 | 0.0 | 0.00 | 0.01 | 0.01 | 72 | 1015.7 |
| 20260507044330 | 56 | 174 | 0.0 | 0.0 | 0.00 | 0.01 | 0.01 | 74 | 1015.7 |
| 20260507043841 | 56 | 173 | 0.0 | 0.0 | 0.00 | 0.01 | 0.01 | 75 | 1015.7 |
| 20260507043351 | 56 | 174 | 0.0 | 0.0 | 0.00 | 0.01 | 0.01 | 78 | 1015.7 |
| 20260507042835 | 56 | 173 | 0.0 | 0.0 | 0.00 | 0.01 | 0.01 | 78 | 1015.5 |
| 20260507042341 | 56 | 173 | 0.0 | 0.0 | 0.00 | 0.01 | 0.01 | 78 | 1015.5 |
| 20260507041827 | 56 | 173 | 0.0 | 0.0 | 0.00 | 0.01 | 0.01 | 78 | 1015.5 |
| 20260507041333 | 57 | 173 | 0.0 | 2.0 | 0.00 | 0.01 | 0.01 | 79 | 1015.5 |
| 20260507040841 | 56 | 173 | 0.0 | 2.0 | 0.00 | 0.01 | 0.01 | 79 | 1015.5 |
| 20260507040328 | 57 | 172 | 0.0 | 1.0 | 0.00 | 0.01 | 0.01 | 81 | 1015.5 |
| 20260507035833 | 57 | 172 | 0.0 | 1.0 | 0.00 | 0.01 | 0.01 | 80 | 1015.2 |
| 20260507035340 | 57 | 172 | 0.0 | 1.0 | 0.00 | 0.01 | 0.01 | 79 | 1015.2 |
| 20260507034826 | 57 | 220 | 0.0 | 1.0 | 0.00 | 0.01 | 0.01 | 77 | 1015.2 |
| 20260507034351 | 57 | 221 | 0.0 | 1.0 | 0.00 | 0.01 | 0.01 | 77 | 1015.2 |
| 20260507033842 | 57 | 221 | 0.0 | 1.0 | 0.00 | 0.01 | 0.01 | 78 | 1015.2 |
| 20260507033329 | 58 | 221 | 0.0 | 1.0 | 0.00 | 0.01 | 0.01 | 77 | 1015.2 |
| 20260507032856 | 58 | 221 | 0.0 | 1.0 | 0.00 | 0.01 | 0.01 | 75 | 1015.2 |
| 20260507032401 | 58 | 221 | 0.0 | 2.0 | 0.00 | 0.01 | 0.01 | 75 | 1015.2 |
| 20260507031826 | 58 | 221 | 1.0 | 2.0 | 0.00 | 0.01 | 0.01 | 75 | 1015.2 |
| 20260507031332 | 58 | 248 | 0.0 | 2.0 | 0.00 | 0.01 | 0.01 | 75 | 1015.2 |
| 20260507030839 | 58 | 248 | 0.0 | 3.0 | 0.00 | 0.01 | 0.01 | 75 | 1015.2 |
| 20260507030344 | 58 | 248 | 0.0 | 3.0 | 0.00 | 0.01 | 0.01 | 75 | 1015.2 |
| 20260507025830 | 58 | 240 | 0.0 | 4.0 | 0.00 | 0.01 | 0.01 | 74 | 1014.9 |
| 20260507025337 | 59 | 238 | 0.0 | 3.0 | 0.00 | 0.01 | 0.01 | 73 | 1014.9 |
| 20260507024844 | 59 | 225 | 1.0 | 4.0 | 0.00 | 0.01 | 0.01 | 71 | 1014.9 |
| 20260507024331 | 59 | 253 | 0.0 | 4.0 | 0.00 | 0.01 | 0.01 | 71 | 1014.7 |
| 20260507023837 | 60 | 258 | 1.0 | 4.0 | 0.00 | 0.01 | 0.01 | 70 | 1014.7 |
| 20260507023344 | 60 | 250 | 2.0 | 5.0 | 0.00 | 0.01 | 0.01 | 69 | 1014.7 |
| 20260507022830 | 60 | 234 | 1.0 | 5.0 | 0.00 | 0.01 | 0.01 | 69 | 1014.5 |
| 20260507022337 | 61 | 246 | 2.0 | 4.0 | 0.00 | 0.01 | 0.01 | 68 | 1014.5 |
| 20260507021823 | 61 | 247 | 2.0 | 6.0 | 0.00 | 0.01 | 0.01 | 68 | 1014.5 |
| 20260507021333 | 62 | 219 | 2.0 | 6.0 | 0.00 | 0.01 | 0.01 | 67 | 1014.7 |
| 20260507020840 | 62 | 234 | 3.0 | 7.0 | 0.00 | 0.01 | 0.01 | 67 | 1014.7 |
| 20260507020325 | 63 | 237 | 4.0 | 7.0 | 0.00 | 0.01 | 0.01 | 66 | 1014.7 |
| 20260507015829 | 63 | 226 | 2.0 | 6.0 | 0.00 | 0.01 | 0.01 | 66 | 1014.5 |
| 20260507015338 | 63 | 217 | 1.0 | 6.0 | 0.00 | 0.01 | 0.01 | 67 | 1014.5 |
| 20260507014827 | 64 | 211 | 2.0 | 6.0 | 0.00 | 0.01 | 0.01 | 67 | 1014.5 |
| 20260507014334 | 64 | 219 | 3.0 | 6.0 | 0.00 | 0.01 | 0.01 | 67 | 1014.5 |
| 20260507013841 | 64 | 219 | 2.0 | 7.0 | 0.00 | 0.01 | 0.01 | 67 | 1014.5 |
| 20260507013351 | 65 | 219 | 3.0 | 7.0 | 0.00 | 0.01 | 0.01 | 66 | 1014.5 |
| 20260507012835 | 65 | 225 | 2.0 | 8.0 | 0.00 | 0.01 | 0.01 | 67 | 1014.3 |
| 20260507012341 | 65 | 219 | 2.0 | 10.0 | 0.00 | 0.01 | 0.01 | 67 | 1014.3 |
| 20260507011829 | 65 | 229 | 3.0 | 10.0 | 0.00 | 0.01 | 0.01 | 67 | 1014.3 |
| 20260507011355 | 66 | 232 | 2.0 | 7.0 | 0.00 | 0.01 | 0.01 | 66 | 1014.5 |
| 20260507010841 | 66 | 203 | 2.0 | 7.0 | 0.00 | 0.01 | 0.01 | 66 | 1014.5 |
| 20260507010347 | 66 | 222 | 2.0 | 10.0 | 0.00 | 0.01 | 0.01 | 67 | 1014.5 |
| 20260507005830 | 66 | 224 | 3.0 | 10.0 | 0.00 | 0.01 | 0.01 | 66 | 1014.3 |
| 20260507005336 | 67 | 222 | 3.0 | 7.0 | 0.00 | 0.01 | 0.01 | 65 | 1014.3 |
| 20260507004826 | 67 | 225 | 3.0 | 7.0 | 0.00 | 0.01 | 0.01 | 65 | 1014.3 |
| 20260507004350 | 67 | 211 | 2.0 | 10.0 | 0.00 | 0.01 | 0.01 | 66 | 1014.1 |
| 20260507003837 | 66 | 217 | 4.0 | 11.0 | 0.00 | 0.01 | 0.01 | 66 | 1014.1 |
| 20260507003342 | 67 | 225 | 4.0 | 11.0 | 0.00 | 0.01 | 0.01 | 65 | 1014.1 |
| 20260507002828 | 67 | 219 | 3.0 | 11.0 | 0.00 | 0.01 | 0.01 | 65 | 1014.1 |
| 20260507002355 | 67 | 215 | 3.0 | 11.0 | 0.00 | 0.01 | 0.01 | 65 | 1014.1 |
| 20260507001840 | 68 | 218 | 3.0 | 10.0 | 0.00 | 0.01 | 0.01 | 64 | 1014.1 |
| 20260507001328 | 68 | 223 | 4.0 | 12.0 | 0.00 | 0.01 | 0.01 | 64 | 1013.8 |
| 20260507000835 | 68 | 218 | 8.0 | 12.0 | 0.00 | 0.01 | 0.01 | 62 | 1013.8 |
| 20260507000325 | 69 | 243 | 5.0 | 11.0 | 0.00 | 0.01 | 0.01 | 63 | 1013.8 |
| 20260506235831 | 69 | 198 | 4.0 | 11.0 | 0.00 | 0.01 | 0.01 | 62 | 1013.8 |
| 20260506235339 | 69 | 238 | 2.0 | 11.0 | 0.00 | 0.01 | 0.01 | 63 | 1013.8 |
| 20260506234832 | 69 | 202 | 6.0 | 14.0 | 0.00 | 0.01 | 0.01 | 62 | 1013.8 |
| 20260506234338 | 69 | 225 | 3.0 | 14.0 | 0.00 | 0.01 | 0.01 | 62 | 1013.7 |
| 20260506233824 | 69 | 217 | 5.0 | 11.0 | 0.00 | 0.01 | 0.01 | 62 | 1013.7 |
| 20260506233333 | 70 | 211 | 5.0 | 11.0 | 0.00 | 0.01 | 0.01 | 62 | 1013.7 |
| 20260506232840 | 70 | 257 | 5.0 | 11.0 | 0.00 | 0.01 | 0.01 | 61 | 1013.8 |
| 20260506232328 | 70 | 225 | 3.0 | 11.0 | 0.00 | 0.01 | 0.01 | 62 | 1013.8 |
| 20260506231835 | 70 | 233 | 5.0 | 11.0 | 0.00 | 0.01 | 0.01 | 61 | 1013.8 |
| 20260506231403 | 70 | 228 | 3.0 | 12.0 | 0.00 | 0.01 | 0.01 | 61 | 1013.7 |
| 20260506230827 | 70 | 229 | 7.0 | 12.0 | 0.00 | 0.01 | 0.01 | 61 | 1013.7 |
| 20260506230334 | 70 | 212 | 6.0 | 11.0 | 0.00 | 0.01 | 0.01 | 62 | 1013.7 |
| 20260506225839 | 70 | 215 | 4.0 | 12.0 | 0.00 | 0.01 | 0.01 | 62 | 1013.7 |
| 20260506225349 | 70 | 209 | 3.0 | 13.0 | 0.00 | 0.01 | 0.01 | 61 | 1013.7 |
| 20260506224835 | 71 | 257 | 4.0 | 10.0 | 0.00 | 0.01 | 0.01 | 61 | 1013.7 |
| 20260506224341 | 70 | 207 | 3.0 | 11.0 | 0.00 | 0.01 | 0.01 | 62 | 1013.9 |
| 20260506223827 | 70 | 229 | 4.0 | 11.0 | 0.00 | 0.01 | 0.01 | 61 | 1013.9 |
| 20260506223336 | 70 | 210 | 3.0 | 14.0 | 0.00 | 0.01 | 0.01 | 61 | 1013.9 |
| 20260506222843 | 70 | 244 | 5.0 | 14.0 | 0.00 | 0.01 | 0.01 | 61 | 1014.1 |
| 20260506222330 | 71 | 262 | 6.0 | 12.0 | 0.00 | 0.01 | 0.01 | 60 | 1014.1 |
| 20260506221857 | 71 | 276 | 3.0 | 15.0 | 0.00 | 0.01 | 0.01 | 61 | 1014.1 |
| 20260506221403 | 71 | 243 | 5.0 | 15.0 | 0.00 | 0.01 | 0.01 | 60 | 1014.2 |
| 20260506220828 | 70 | 277 | 2.0 | 12.0 | 0.00 | 0.01 | 0.01 | 60 | 1014.2 |
| 20260506220334 | 70 | 238 | 5.0 | 13.0 | 0.00 | 0.01 | 0.01 | 61 | 1014.2 |
| 20260506215839 | 70 | 209 | 4.0 | 13.0 | 0.00 | 0.01 | 0.01 | 61 | 1014.2 |
| 20260506215329 | 70 | 244 | 2.0 | 16.0 | 0.00 | 0.01 | 0.01 | 61 | 1014.2 |
| 20260506214836 | 70 | 242 | 5.0 | 16.0 | 0.00 | 0.01 | 0.01 | 61 | 1014.2 |
| 20260506214322 | 71 | 229 | 5.0 | 13.0 | 0.00 | 0.01 | 0.01 | 60 | 1014.3 |
| 20260506213830 | 71 | 219 | 4.0 | 12.0 | 0.00 | 0.01 | 0.01 | 59 | 1014.3 |
| 20260506213339 | 71 | 241 | 5.0 | 12.0 | 0.00 | 0.01 | 0.01 | 59 | 1014.3 |
| 20260506212904 | 71 | 244 | 3.0 | 10.0 | 0.00 | 0.01 | 0.01 | 59 | 1014.4 |
| 20260506212329 | 72 | 202 | 4.0 | 14.0 | 0.00 | 0.01 | 0.01 | 58 | 1014.4 |
| 20260506211839 | 71 | 261 | 5.0 | 14.0 | 0.00 | 0.01 | 0.01 | 58 | 1014.4 |
| 20260506211325 | 71 | 229 | 5.0 | 14.0 | 0.00 | 0.01 | 0.01 | 59 | 1014.5 |
| 20260506210834 | 71 | 205 | 4.0 | 11.0 | 0.00 | 0.01 | 0.01 | 59 | 1014.5 |
| 20260506210401 | 71 | 232 | 4.0 | 12.0 | 0.00 | 0.01 | 0.01 | 58 | 1014.5 |
| 20260506205830 | 71 | 250 | 6.0 | 14.0 | 0.00 | 0.01 | 0.01 | 57 | 1014.5 |
| 20260506205337 | 71 | 229 | 4.0 | 14.0 | 0.00 | 0.01 | 0.01 | 58 | 1014.5 |
| 20260506204844 | 71 | 219 | 3.0 | 14.0 | 0.00 | 0.01 | 0.01 | 57 | 1014.5 |
| 20260506204329 | 72 | 244 | 4.0 | 14.0 | 0.00 | 0.01 | 0.01 | 56 | 1014.6 |
| 20260506203835 | 72 | 230 | 5.0 | 13.0 | 0.00 | 0.01 | 0.01 | 56 | 1014.6 |
| 20260506203405 | 72 | 232 | 4.0 | 13.0 | 0.00 | 0.01 | 0.01 | 55 | 1014.6 |
| 20260506202851 | 72 | 290 | 3.0 | 10.0 | 0.00 | 0.01 | 0.01 | 54 | 1014.7 |
| 20260506202356 | 73 | 206 | 2.0 | 10.0 | 0.00 | 0.01 | 0.01 | 52 | 1014.7 |
| 20260506201844 | 73 | 276 | 1.0 | 6.0 | 0.00 | 0.01 | 0.01 | 48 | 1014.7 |
| 20260506201330 | 73 | 275 | 2.0 | 6.0 | 0.00 | 0.01 | 0.01 | 46 | 1014.8 |
| 20260506200835 | 72 | 273 | 1.0 | 5.0 | 0.00 | 0.01 | 0.01 | 49 | 1014.8 |
| 20260506200325 | 72 | 214 | 1.0 | 5.0 | 0.00 | 0.01 | 0.01 | 48 | 1014.8 |
| 20260506195830 | 72 | 269 | 1.0 | 7.0 | 0.00 | 0.01 | 0.01 | 48 | 1015.3 |
| 20260506195324 | 71 | 279 | 3.0 | 6.0 | 0.00 | 0.01 | 0.01 | 50 | 1015.3 |
| 20260506194852 | 71 | 215 | 2.0 | 6.0 | 0.00 | 0.01 | 0.01 | 50 | 1015.3 |
| 20260506194338 | 70 | 257 | 1.0 | 5.0 | 0.00 | 0.01 | 0.01 | 51 | 1015.4 |
| 20260506193844 | 70 | 272 | 1.0 | 3.0 | 0.00 | 0.01 | 0.01 | 51 | 1015.4 |
| 20260506193349 | 70 | 302 | 0.0 | 3.0 | 0.00 | 0.01 | 0.01 | 50 | 1015.4 |
| 20260506192834 | 70 | 300 | 0.0 | 4.0 | 0.00 | 0.01 | 0.01 | 50 | 1015.5 |
| 20260506192340 | 70 | 277 | 1.0 | 4.0 | 0.00 | 0.01 | 0.01 | 51 | 1015.5 |
| 20260506191825 | 70 | 319 | 1.0 | 4.0 | 0.00 | 0.01 | 0.01 | 51 | 1015.5 |
| 20260506191331 | 71 | 260 | 1.0 | 5.0 | 0.00 | 0.01 | 0.01 | 50 | 1015.5 |
| 20260506190840 | 71 | 263 | 1.0 | 5.0 | 0.00 | 0.01 | 0.01 | 51 | 1015.5 |
| 20260506190327 | 70 | 292 | 0.0 | 4.0 | 0.00 | 0.01 | 0.01 | 52 | 1015.5 |
| 20260506185832 | 70 | 290 | 0.0 | 5.0 | 0.00 | 0.01 | 0.01 | 53 | 1015.8 |
| 20260506185339 | 69 | 273 | 1.0 | 5.0 | 0.00 | 0.01 | 0.01 | 53 | 1015.8 |
| 20260506184850 | 69 | 215 | 1.0 | 3.0 | 0.00 | 0.01 | 0.01 | 53 | 1015.8 |
| 20260506184355 | 68 | 355 | 0.0 | 3.0 | 0.00 | 0.02 | 0.01 | 55 | 1016.2 |
| 20260506183839 | 68 | 268 | 0.0 | 3.0 | 0.00 | 0.02 | 0.01 | 54 | 1016.2 |
| 20260506183345 | 67 | 5 | 0.0 | 3.0 | 0.00 | 0.02 | 0.01 | 56 | 1016.2 |
| 20260506182830 | 66 | 360 | 1.0 | 3.0 | 0.00 | 0.02 | 0.01 | 57 | 1016.3 |
| 20260506182340 | 67 | 360 | 0.0 | 4.0 | 0.00 | 0.02 | 0.01 | 57 | 1016.3 |
| 20260506181827 | 66 | 360 | 0.0 | 4.0 | 0.00 | 0.02 | 0.01 | 58 | 1016.3 |
| 20260506181333 | 66 | 307 | 0.0 | 3.0 | 0.00 | 0.02 | 0.01 | 57 | 1016.4 |
| 20260506180839 | 66 | 253 | 0.0 | 2.0 | 0.00 | 0.02 | 0.01 | 59 | 1016.4 |
| 20260506180346 | 66 | 300 | 0.0 | 3.0 | 0.00 | 0.02 | 0.01 | 60 | 1016.4 |
| 20260506175831 | 65 | 261 | 0.0 | 3.0 | 0.00 | 0.02 | 0.01 | 62 | 1016.5 |
| 20260506175338 | 65 | 309 | 2.0 | 4.0 | 0.00 | 0.02 | 0.01 | 62 | 1016.5 |
| 20260506174904 | 64 | 260 | 1.0 | 4.0 | 0.00 | 0.02 | 0.01 | 62 | 1016.5 |
| 20260506174330 | 64 | 267 | 1.0 | 4.0 | 0.00 | 0.02 | 0.01 | 63 | 1016.6 |
| 20260506173839 | 63 | 310 | 1.0 | 4.0 | 0.00 | 0.02 | 0.01 | 62 | 1016.6 |
| 20260506173327 | 64 | 261 | 0.0 | 5.0 | 0.00 | 0.02 | 0.01 | 65 | 1016.6 |
| 20260506172834 | 63 | 252 | 1.0 | 5.0 | 0.00 | 0.02 | 0.01 | 63 | 1016.6 |
| 20260506172340 | 63 | 299 | 0.0 | 3.0 | 0.00 | 0.02 | 0.01 | 64 | 1016.6 |
| 20260506171827 | 63 | 271 | 1.0 | 3.0 | 0.00 | 0.02 | 0.01 | 64 | 1016.6 |
| 20260506171333 | 62 | 290 | 1.0 | 3.0 | 0.00 | 0.02 | 0.01 | 65 | 1016.7 |
| 20260506170839 | 62 | 279 | 0.0 | 3.0 | 0.00 | 0.02 | 0.01 | 67 | 1016.7 |
| 20260506170345 | 61 | 269 | 2.0 | 3.0 | 0.00 | 0.02 | 0.01 | 68 | 1016.7 |
| 20260506165830 | 61 | 273 | 1.0 | 4.0 | 0.00 | 0.02 | 0.01 | 69 | 1015.8 |
| 20260506165337 | 60 | 257 | 1.0 | 4.0 | 0.00 | 0.02 | 0.01 | 70 | 1015.8 |
| 20260506164904 | 60 | 258 | 1.0 | 3.0 | 0.00 | 0.02 | 0.01 | 72 | 1015.8 |
| 20260506164349 | 60 | 253 | 0.0 | 3.0 | 0.00 | 0.02 | 0.01 | 71 | 1015.9 |
| 20260506163855 | 60 | 252 | 1.0 | 3.0 | 0.00 | 0.02 | 0.01 | 73 | 1015.9 |
| 20260506163325 | 59 | 248 | 0.0 | 3.0 | 0.00 | 0.02 | 0.01 | 73 | 1015.9 |
| 20260506162831 | 59 | 236 | 1.0 | 3.0 | 0.00 | 0.02 | 0.01 | 74 | 1015.8 |
| 20260506162337 | 59 | 297 | 1.0 | 3.0 | 0.00 | 0.02 | 0.01 | 74 | 1015.8 |
| 20260506161844 | 59 | 298 | 0.0 | 3.0 | 0.00 | 0.02 | 0.01 | 74 | 1015.8 |
| 20260506161333 | 59 | 299 | 0.0 | 2.0 | 0.00 | 0.02 | 0.01 | 75 | 1015.7 |
| 20260506160839 | 59 | 299 | 0.0 | 1.0 | 0.00 | 0.02 | 0.01 | 75 | 1015.7 |
| 20260506160325 | 59 | 299 | 0.0 | 0.0 | 0.00 | 0.02 | 0.01 | 75 | 1015.7 |
| 20260506155834 | 59 | 299 | 0.0 | 0.0 | 0.00 | 0.02 | 0.01 | 75 | 1015.7 |
| 20260506155343 | 59 | 299 | 0.0 | 0.0 | 0.00 | 0.02 | 0.01 | 76 | 1015.7 |
| 20260506154830 | 59 | 299 | 0.0 | 0.0 | 0.00 | 0.02 | 0.01 | 76 | 1015.7 |
| 20260506154336 | 58 | 299 | 0.0 | 0.0 | 0.00 | 0.02 | 0.01 | 77 | 1015.7 |
| 20260506153901 | 58 | 299 | 0.0 | 0.0 | 0.00 | 0.02 | 0.01 | 77 | 1015.7 |
| 20260506153329 | 58 | 299 | 0.0 | 0.0 | 0.00 | 0.02 | 0.01 | 77 | 1015.7 |
| 20260506152837 | 58 | 299 | 0.0 | 0.0 | 0.00 | 0.02 | 0.01 | 76 | 1015.7 |
| 20260506152324 | 58 | 299 | 0.0 | 0.0 | 0.00 | 0.02 | 0.01 | 77 | 1015.7 |
| 20260506151833 | 58 | 299 | 0.0 | 1.0 | 0.00 | 0.02 | 0.01 | 76 | 1015.7 |
| 20260506151340 | 58 | 299 | 0.0 | 1.0 | 0.00 | 0.02 | 0.01 | 76 | 1015.7 |
| 20260506150828 | 58 | 299 | 0.0 | 0.0 | 0.00 | 0.02 | 0.01 | 77 | 1015.7 |
| 20260506150333 | 57 | 299 | 0.0 | 0.0 | 0.00 | 0.02 | 0.01 | 77 | 1015.7 |
| 20260506145838 | 56 | 299 | 0.0 | 0.0 | 0.00 | 0.02 | 0.01 | 79 | 1015.7 |
| 20260506145325 | 56 | 299 | 0.0 | 1.0 | 0.00 | 0.02 | 0.01 | 78 | 1015.7 |
| 20260506144832 | 56 | 299 | 0.0 | 1.0 | 0.00 | 0.02 | 0.01 | 77 | 1015.7 |
| 20260506144339 | 56 | 300 | 0.0 | 0.0 | 0.00 | 0.02 | 0.01 | 77 | 1015.6 |
| 20260506143829 | 56 | 300 | 0.0 | 1.0 | 0.00 | 0.02 | 0.01 | 78 | 1015.6 |
| 20260506143336 | 55 | 299 | 0.0 | 1.0 | 0.00 | 0.02 | 0.01 | 79 | 1015.6 |
| 20260506142825 | 55 | 299 | 0.0 | 0.0 | 0.00 | 0.02 | 0.01 | 80 | 1015.6 |
| 20260506142351 | 55 | 299 | 0.0 | 0.0 | 0.00 | 0.02 | 0.01 | 81 | 1015.6 |
| 20260506141837 | 54 | 299 | 0.0 | 0.0 | 0.00 | 0.02 | 0.01 | 81 | 1015.6 |
| 20260506141402 | 54 | 300 | 0.0 | 1.0 | 0.00 | 0.02 | 0.01 | 82 | 1015.5 |
| 20260506140828 | 53 | 299 | 0.0 | 1.0 | 0.00 | 0.02 | 0.01 | 83 | 1015.5 |
| 20260506140335 | 53 | 300 | 0.0 | 0.0 | 0.00 | 0.02 | 0.01 | 84 | 1015.5 |
| 20260506135839 | 52 | 299 | 0.0 | 0.0 | 0.00 | 0.02 | 0.01 | 85 | 1015.5 |
| 20260506135325 | 52 | 300 | 0.0 | 0.0 | 0.00 | 0.02 | 0.01 | 87 | 1015.5 |
| 20260506134831 | 51 | 300 | 0.0 | 0.0 | 0.00 | 0.02 | 0.01 | 88 | 1015.5 |
| 20260506134338 | 51 | 299 | 0.0 | 1.0 | 0.00 | 0.02 | 0.01 | 88 | 1015.5 |
| 20260506133849 | 51 | 299 | 0.0 | 1.0 | 0.00 | 0.02 | 0.01 | 89 | 1015.5 |
| 20260506133334 | 50 | 300 | 0.0 | 0.0 | 0.00 | 0.02 | 0.01 | 89 | 1015.5 |
| 20260506132901 | 50 | 299 | 0.0 | 1.0 | 0.00 | 0.02 | 0.01 | 90 | 1015.4 |
| 20260506132326 | 50 | 299 | 0.0 | 1.0 | 0.01 | 0.02 | 0.01 | 90 | 1015.4 |
| 20260506131836 | 50 | 299 | 0.0 | 0.0 | 0.01 | 0.02 | 0.01 | 90 | 1015.4 |
| 20260506131343 | 50 | 299 | 0.0 | 2.0 | 0.01 | 0.02 | 0.01 | 90 | 1015.1 |
| 20260506130830 | 49 | 299 | 1.0 | 2.0 | 0.01 | 0.02 | 0.01 | 90 | 1015.1 |
| 20260506130340 | 49 | 299 | 0.0 | 2.0 | 0.01 | 0.02 | 0.01 | 90 | 1015.1 |
| 20260506125844 | 49 | 299 | 0.0 | 2.0 | 0.01 | 0.02 | 0.01 | 90 | 1015.0 |
| 20260506125330 | 49 | 299 | 1.0 | 2.0 | 0.01 | 0.02 | 0.01 | 90 | 1015.0 |
| 20260506124837 | 49 | 298 | 0.0 | 2.0 | 0.01 | 0.02 | 0.01 | 90 | 1015.0 |
| 20260506124329 | 49 | 253 | 1.0 | 2.0 | 0.01 | 0.03 | 0.01 | 90 | 1015.0 |
| 20260506123834 | 49 | 251 | 0.0 | 2.0 | 0.01 | 0.03 | 0.01 | 91 | 1015.0 |
| 20260506123341 | 49 | 248 | 0.0 | 2.0 | 0.01 | 0.03 | 0.01 | 91 | 1015.0 |
| 20260506122826 | 49 | 248 | 1.0 | 2.0 | 0.01 | 0.03 | 0.01 | 91 | 1015.0 |
| 20260506122332 | 49 | 211 | 0.0 | 0.0 | 0.00 | 0.02 | 0.00 | 91 | 1015.0 |
| 20260506121839 | 49 | 211 | 0.0 | 0.0 | 0.00 | 0.02 | 0.00 | 91 | 1015.0 |
| 20260506121325 | 49 | 212 | 0.0 | 0.0 | 0.00 | 0.02 | 0.00 | 90 | 1014.8 |
| 20260506120833 | 49 | 212 | 0.0 | 0.0 | 0.00 | 0.02 | 0.00 | 91 | 1014.8 |
| 20260506120341 | 49 | 211 | 0.0 | 0.0 | 0.00 | 0.02 | 0.00 | 90 | 1014.8 |
| 20260506115827 | 49 | 212 | 0.0 | 0.0 | 0.00 | 0.02 | 0.00 | 90 | 1014.8 |
| 20260506115338 | 49 | 212 | 0.0 | 0.0 | 0.00 | 0.02 | 0.00 | 90 | 1014.8 |
| 20260506114904 | 49 | 212 | 0.0 | 0.0 | 0.00 | 0.02 | 0.00 | 90 | 1014.8 |
| 20260506114348 | 50 | 212 | 0.0 | 0.0 | 0.00 | 0.03 | 0.00 | 90 | 1014.8 |
| 20260506113833 | 50 | 211 | 0.0 | 0.0 | 0.00 | 0.03 | 0.00 | 90 | 1014.8 |